SCP
0 0 0 0 0 0 0 0 0 0 0 0 0 0 0 0 0 0 0 0 0 0 0 0 0 0 0 0 0 0 0 0 0 0 0 0 0 0 0 0 0 0 0
0 0 0 0 0 0 0 0 0 0 0 0 0 0 0 0 0 0 0 0 0 0 0 0 0 0 0 0 0 0 0 0 0 0 0 0 0 0 0 0 0 0 0
0 0 0 0 0 0 0 0 0 0 0 0 0 0 0 0 0 0 0 0 0 0 0 0 0 0 0 0 0 0 0 0 0 0 0 0 0 0 0 0 0 0 0
0 0 0 0 0 0 0 0 0 0 0 0 0 0 0 0 0 0 0 0 0 0 0 0 0 0 0 0 0 0 0 0 0 0 0 0 0 0 0 0 0 0 0
0 0 0 0 0 0 0 0 0 0 0 0 0 0 0 0 0 0 0 0 0 0 0 0 0 0 0 0 0 0 0 0 0 0 0 0 0 0 0 0 0 0 0
0 0 0 0 0 0 0 0 0 0 0 0 0 0 0 0 0 0 0 0 0 0 0 0 0 0 0 0 0 0 0 0 0 0 0 0 0 0 0 0 0 0 0
0 0 0 0 0 0 0 0 0 0 0 0 0 0 0 0 0 0 0 0 0 0 0 0 0 0 0 0 0 0 0 0 0 0 0 0 0 0 0 0 0 0 0
0 0 0 0 0 0 0 0 0 0 0 0 0 0 0 0 0 0 0 0 0 0 0 0 0 0 0 0 0 0 0 0 0 0 0 0 0 0 0 0 0 0 0
0 0 0 0 0 0 0 0 0 0 0 0 0 0 0 0 0 0 0 0 0 0 0 0 0 0 0 0 0 0 0 0 0 0 0 0 0 0 0 0 0 0 0
0 0 0 0 0 0 0 0 0 0 0 0 0 0 0 0 0 0 0 0 0 0 0 0 0 0 0 0 0 0 0 0 0 0 0 0 0 0 0 0 0 0 0
0 0 0 0 0 0 0 0 0 0 0 0 0 0 0 0 0 0 0 0 0 0 0 0 0 0 0 0 0 0 0 0 0 0 0 0 0 0 0 0 0 0 0
0 0 0 0 0 0 0 0 0 0 0 0 0 0 0 0 0 0 0 0 0 0 0 0 0 0 0 0 0 0 0 0 0 0 0 0 0 0 0 0 0 0 0
0 0 0 0 0 0 0 0 0 0 0 0 0 0 0 0 0 0 0 0 0 0 0 0 0 0 0 0 0 0 0 0 0 0 0 0 0 0 0 0 0 0 0
0 0 0 0 0 0 0 0 0 0 0 0 0 0 0 0 0 0 0 0 0 0 0 0 0 0 0 0 0 0 0 0 0 0 0 0 0 0 0 0 0 0 0
0 0 0 0 0 0 0 0 0 0 0 0 0 0 0 0 0 0 0 0 0 0 0 0 0 0 0 0 0 0 0 0 0 0 0 0 0 0 0 0 0 0 0
0 0 0 0 0 0 0 0 0 0 0 0 0 0 0 0 0 0 0 0 0 0 0 0 0 0 0 0 0 0 0 0 0 0 0 0 0 0 0 0 0 0 0
0 0 0 0 0 0 0 0 0 0 0 0 0 0 0 0 0 0 0 0 0 0 0 0 0 0 0 0 0 0 0 0 0 0 0 0 0 0 0 0 0 0 0
0 0 0 0 0 0 0 0 0 0 0 0 0 0 0 0 0 0 0 0 0 0 0 0 0 0 0 0 0 0 0 0 0 0 0 0 0 0 0 0 0 0 0
0 0 0 0 0 0 0 0 0 0 0 0 0 0 0 0 0 0 0 0 0 0 0 0 0 0 0 0 0 0 0 0 0 0 0 0 0 0 0 0 0 0 0
0 0 0 0 0 0 0 0 0 0 0 0 0 0 0 0 0 0 0 0 0 0 0 0 0 0 0 0 0 0 0 0 0 0 0 0 0 0 0 0 0 0 0
0 0 0 0 0 0 0 0 0 0 0 0 0 0 0 0 0 0 0 0 0 0 0 0 0 0 0 0 0 0 0 0 0 0 0 0 0 0 0 0 0 0 0
0 0 0 0 0 0 0 0 0 0 0 0 0 0 0 0 0 0 0 0 0 0 0 0 0 0 0 0 0 0 0 0 0 0 0 0 0 0 0 0 0 0 0
0 0 0 0 0 0 0 0 0 0 0 0 0 0 0 0 0 0 0 0 0 0 0 0 0 0 0 0 0 0 0 0 0 0 0 0 0 0 0 0 0 0 0
0 0 0 0 0 0 0 0 0 0 0 0 0 0 0 0 0 0 0 0 0 0 0 0 0 0 0 0 0 0 0 0 0 0 0 0 0 0 0 0 0 0 0
0 0 0 0 0 0 0 0 0 0 0 0 0 0 0 0 0 0 0 0 0 0 0 0 0 0 0 0 0 0 0 0 0 0 0 0 0 0 0 0 0 0 0
0 0 0 0 0 0 0 0 0 0 0 0 0 0 0 0 0 0 0 0 0 0 0 0 0 0 0 0 0 0 0 0 0 0 0 0 0 0 0 0 0 0 0
Wind_Speed
7 8 8 10 12 13 13 14 14 14 14 14 13 13 13 13 13 13 14 14 15 15 16 16 16 16 16 17 17 17 17 17 16 16 16 16 16 16 15 13 12 13 16
10 9 9 10 12 13 13 13 13 13 13 13 13 13 13 12 13 13 13 13 14 15 15 15 15 15 15 16 16 16 16 15 15 13 12 14 15 15 15 15 14 11 15
11 10 11 9 11 13 13 12 12 13 13 13 13 12 12 12 12 12 12 13 14 14 14 14 14 15 14 14 14 15 14 14 12 9 7 10 12 14 15 14 14 14 14
11 10 10 10 11 12 12 12 12 13 13 13 12 12 12 12 12 12 12 12 13 13 14 14 14 14 14 14 14 14 13 12 9 4 7 9 10 13 13 13 13 13 13
10 10 11 10 12 12 12 12 12 13 13 12 12 12 12 11 11 11 11 11 12 13 13 13 13 13 13 13 13 13 12 10 5 6 9 8 8 11 12 12 12 12 12
10 10 11 10 12 12 12 12 12 12 13 12 12 11 11 11 11 10 10 10 11 12 12 12 12 12 12 12 12 12 11 7 4 8 7 7 8 10 10 10 11 11 11
10 9 11 9 10 11 11 12 12 12 13 12 12 12 11 11 10 10 10 10 10 11 11 11 11 11 11 11 11 10 9 5 6 7 6 7 8 9 10 10 10 10 11
10 10 10 9 9 10 10 10 10 11 12 12 12 12 11 11 10 10 9 9 9 10 10 10 10 10 10 10 9 9 7 4 5 6 6 7 8 8 9 9 9 10 10
10 9 9 11 10 9 9 9 9 10 10 11 11 11 10 9 9 8 8 8 9 9 9 9 9 9 9 9 8 8 7 4 4 5 5 6 7 8 8 9 9 9 9
9 9 9 10 10 10 10 9 9 9 9 10 10 9 9 8 8 6 6 7 8 8 9 9 8 8 8 8 7 6 3 1 4 4 4 5 6 7 7 8 8 8 9
9 9 9 9 9 9 9 9 9 9 9 10 9 10 8 7 8 6 6 6 7 7 8 8 8 7 7 7 6 3 1 1 3 3 3 6 5 5 5 6 6 7 8
12 10 9 10 10 9 7 8 7 8 8 8 8 9 6 6 5 5 6 5 6 6 6 7 7 6 4 4 5 3 1 1 1 2 3 6 5 3 4 4 5 6 6
12 11 10 10 10 9 7 7 5 5 6 7 8 8 6 5 5 5 4 5 6 6 6 6 6 4 3 2 2 1 0 1 0 1 2 5 5 3 2 3 4 4 5
13 13 12 11 10 10 8 7 6 5 5 6 7 8 6 5 5 5 4 5 5 4 5 5 4 4 4 3 3 2 2 1 1 1 1 3 4 4 1 1 2 3 3
14 14 13 13 12 11 9 7 7 7 7 7 7 8 8 6 6 6 5 5 5 5 5 5 5 5 5 4 4 3 3 2 2 2 1 1 3 4 2 2 2 3 3
15 15 14 14 14 12 10 9 8 7 7 7 7 9 10 7 6 6 6 6 6 6 5 5 6 5 4 4 5 5 4 4 4 4 3 2 2 2 3 4 4 4 4
16 15 15 15 15 14 13 12 8 8 8 8 8 9 10 9 8 7 6 6 6 6 6 5 6 5 5 5 6 6 5 5 5 5 5 4 3 3 4 5 5 6 6
15 16 16 13 15 15 14 12 9 9 9 8 8 9 11 11 10 8 7 7 7 6 6 6 6 6 6 6 6 5 5 5 7 6 6 6 5 4 5 6 7 7 8
16 16 16 16 16 16 15 12 11 9 10 9 9 9 11 12 12 10 8 7 8 7 7 6 7 6 7 6 6 6 6 6 7 7 8 8 7 7 6 6 7 8 10
16 16 17 17 17 15 12 10 9 10 10 9 9 10 12 11 13 11 8 10 9 7 8 8 8 7 7 6 5 6 7 7 7 8 9 8 8 9 8 8 7 7 11
16 17 18 18 17 14 11 11 11 11 10 10 10 12 14 13 13 12 9 10 10 9 10 10 9 10 8 6 5 6 7 9 10 8 8 8 9 9 9 9 8 7 7
17 18 19 19 18 18 14 13 10 11 10 11 10 12 14 14 14 12 13 11 11 10 12 11 11 8 7 7 6 5 5 6 8 9 8 8 9 8 9 10 10 9 8
17 19 17 20 20 20 18 12 9 9 8 10 12 12 15 16 15 14 15 13 12 12 11 12 12 13 9 9 9 8 6 6 3 5 8 8 9 8 9 9 11 11 10
18 17 18 19 20 20 19 16 17 14 14 16 13 12 14 16 16 16 15 15 14 12 13 12 13 12 12 10 8 10 11 8 6 5 5 7 9 10 10 9 10 11 11
16 15 16 18 19 19 20 20 19 18 16 12 13 14 14 14 16 16 16 15 14 13 14 14 13 13 11 12 10 8 10 10 12 9 10 8 7 8 9 10 9 9 10
14 13 15 16 18 18 20 21 22 22 19 17 16 14 13 11 12 17 16 15 15 13 14 14 13 15 13 13 12 10 9 8 9 10 12 11 10 9 9 9 9 9 9
Wind_Direction
148 141 132 138 131 127 123 120 117 114 111 109 106 104 102 101 99 98 97 95 92 90 88 86 84 82 81 79 77 74 73 71 71 72 75 76 76 74 69 62 66 69 65
142 141 134 137 134 130 126 124 121 119 115 111 109 108 106 103 102 101 100 99 97 95 93 91 89 87 85 83 81 79 76 72 68 66 72 78 73 72 70 65 61 65 64
143 142 143 136 133 131 129 128 126 123 118 115 114 113 111 108 106 105 104 102 101 100 98 96 94 92 90 87 85 82 79 74 68 61 71 79 76 71 68 65 63 62 61
145 147 143 134 134 133 132 130 129 127 122 120 119 117 116 114 112 111 109 106 105 104 102 100 98 95 93 90 87 84 80 74 64 44 73 72 73 70 67 65 62 59 57
148 147 136 139 138 138 137 134 133 130 127 125 124 122 121 119 117 115 112 109 108 106 104 103 102 99 96 94 90 86 82 75 61 70 73 71 72 71 69 66 62 58 56
151 151 143 144 142 142 142 141 139 136 134 132 129 126 124 122 121 119 116 112 110 108 107 105 105 103 99 95 91 87 82 70 82 73 69 66 68 73 72 69 66 62 59
155 155 150 147 145 146 147 146 145 143 140 137 134 130 128 127 126 125 123 118 114 112 111 110 109 106 102 98 93 87 77 45 65 72 67 65 61 64 69 68 64 66 64
160 160 154 146 146 148 149 148 149 147 143 141 138 135 133 133 133 132 131 126 122 120 118 116 114 112 108 102 96 85 65 25 79 70 67 66 54 62 66 67 69 69 67
166 167 165 163 159 152 149 147 146 144 143 143 141 137 133 133 134 132 135 136 133 130 125 122 119 116 112 107 100 87 69 13 59 65 57 56 41 60 68 68 69 70 71
176 179 175 174 172 168 163 150 145 142 142 139 134 130 126 125 127 126 146 143 142 139 134 131 126 120 115 111 103 91 75 276 65 66 55 50 33 60 68 68 70 75 73
187 188 186 181 180 176 170 158 156 147 142 142 139 135 147 158 155 157 152 144 145 144 143 141 133 122 120 116 105 102 217 53 59 45 47 27 28 55 66 71 76 80 75
193 194 194 191 185 182 172 171 173 170 165 174 167 166 173 169 165 165 129 128 128 134 146 142 132 142 178 152 139 190 160 68 29 53 50 14 16 41 67 73 83 88 82
196 196 199 198 192 188 181 181 179 178 177 183 181 179 177 175 170 179 166 157 160 166 172 158 173 187 190 182 183 184 165 260 0 40 54 15 360 13 55 80 95 96 93
200 201 200 200 198 196 191 187 186 186 186 188 187 188 186 186 189 188 191 186 185 189 190 194 196 194 197 197 208 215 223 250 277 309 45 14 345 343 348 111 128 121 117
206 204 203 202 202 199 197 194 195 195 197 195 191 193 198 197 196 194 195 197 200 199 199 203 205 200 207 209 215 226 233 244 253 260 224 79 327 321 292 251 207 166 157
211 208 204 205 205 202 201 201 200 199 200 203 200 200 202 206 203 199 200 202 206 207 209 211 212 213 218 220 224 230 239 242 242 248 257 221 224 289 280 260 234 210 201
213 210 208 207 207 206 207 207 205 203 201 206 206 205 205 209 208 206 207 207 208 208 209 215 216 223 227 227 232 233 238 243 247 246 248 253 238 222 244 248 241 232 226
214 211 209 206 208 209 209 209 208 207 205 209 209 207 208 209 210 209 212 213 208 207 210 214 217 222 226 231 237 235 237 239 244 246 246 244 246 239 223 226 237 238 236
215 212 210 209 210 210 210 211 212 210 210 212 211 211 210 210 210 212 215 215 207 209 214 216 222 227 232 236 243 247 246 244 244 240 242 242 240 240 240 218 225 236 238
219 215 214 211 213 211 209 212 213 215 215 215 214 214 212 210 210 213 216 215 210 212 215 215 222 225 237 241 244 251 253 250 245 243 242 239 236 236 237 235 228 226 231
220 217 215 213 212 208 206 208 210 214 213 215 217 216 215 213 210 212 215 215 212 216 218 218 220 225 228 229 242 254 253 246 243 240 237 237 235 233 235 234 235 235 228
220 217 216 215 213 209 209 209 212 214 217 217 215 218 218 215 213 212 215 215 212 217 221 220 218 224 226 212 224 246 264 248 229 231 232 234 238 233 232 233 234 233 236
224 220 216 215 214 212 211 210 208 213 217 215 216 216 216 216 215 214 216 217 216 216 219 218 216 221 224 216 220 228 241 255 266 220 226 230 233 234 236 234 233 233 234
227 224 221 219 215 213 209 209 208 210 216 219 218 218 215 214 216 215 217 218 218 217 222 220 218 221 225 226 218 230 242 260 265 267 224 228 233 238 239 235 234 234 232
232 226 223 221 219 214 210 210 212 218 223 224 220 220 218 213 215 216 216 218 219 220 222 222 219 220 222 227 223 218 229 241 246 257 267 256 236 235 238 237 236 235 232
238 227 223 222 222 217 212 212 214 218 220 221 220 219 217 216 214 216 216 217 220 221 222 222 222 222 223 227 230 227 222 225 227 235 250 260 260 253 238 234 235 235 232